Regional Weather Roundup
Issued by NWS

Home | Current Version | Previous Version | Graphics & Text | Print | Product List | Glossary On
Versions: 1 2 3 4 5 6 7 8 9 10 11 12 13 14 15 16 17 18 19 20 21 22 23 24 25 26 27 28 29 30 31 32 33 34 35 36 37 38 39 40 41 42 43 44 45 46 47 48 49 50
000
ASUS45 KABQ 201510
RWRNM
NEW MEXICO REGIONAL WEATHER ROUNDUP
NATIONAL WEATHER SERVICE ALBUQUERQUE NM
900 AM MDT SUN AUG 20 2017

NOTE: "FAIR" MEANS FEW OR NO CLOUDS BELOW 12,000 FEET AGL WITH NO
       SIGNIFICANT WEATHER OR OBSTRUCTIONS TO VISION.

      THIS PRODUCT IS RELEASED AS TWO VERSIONS.  ONE VERSION NEAR
      THE TOP OF THE HOUR CONTAINING PRELIMINARY DATA FROM ALBUQUERQUE
      AND OTHER STATIONS.  A FINAL VERSION WITH ADDITIONAL DATA IS
      ISSUED ABOUT 10 MINUTES AFTER THE HOUR.

NMZ501-503-504-510>518-201600-
NORTHWEST PLATEAU/NORTHCENTRAL MOUNTAINS

CITY           SKY/WX    TMP DP  RH WIND       PRES   REMARKS
FARMINGTON     FAIR      72  45  37 E13       30.14R
LOS ALAMOS     FAIR      64  45  49 N5        30.29S
SANTA FE       FAIR      71  49  45 N9        30.22R
TAOS           FAIR      64  46  52 CALM      30.31S
ANGEL FIRE     FAIR      55  47  75 CALM      30.38F

$$
NMZ402-403-502-505>509-201600-
WESTCENTRAL MOUNTAINS/SOUTHWEST MOUNTAINS

CITY           SKY/WX    TMP DP  RH WIND       PRES   REMARKS
GALLUP         FAIR      70  45  40 SW8       30.22R
GRANTS         FAIR      71  42  35 CALM      30.25R
SILVER CITY    DRIZZLE   63  59  87 N6        30.21R

$$
NMZ407-409-411-412-201600-
SOUTHERN DESERTS

CITY           SKY/WX    TMP DP  RH WIND       PRES   REMARKS
DEMING         LGT RAIN  64  62  93 CALM      30.16R
LAS CRUCES     RAIN      62  61  95 N3        30.17R
HOLLOMAN AFB   LGT RAIN  64  63  94 CALM      30.18R FOG
ALAMOGORDO     LGT RAIN  64  64 100 SW7       30.18R
T OR C         CLOUDY    69  56  62 S9        30.16R

$$
NMZ519>523-201600-
CENTRAL VALLEYS/CENTRAL HIGHLANDS

CITY           SKY/WX    TMP DP  RH WIND       PRES   REMARKS
ALBUQUERQUE    PTSUNNY   72  52  49 SW15      30.18R
DOUBLE EAGLE   CLOUDY    70  52  52 SE8       30.21R
MORIARTY ARPT  FAIR      65  56  72 S7        30.24R
CLINES CORNERS FAIR      69  48  47 W9        30.27R
BELEN          FAIR      74  51  44 S14       30.17R
SOCORRO        CLOUDY    70  54  56 SE8       30.15R

$$
NMZ524>526-539-540-201600-
SOUTHCENTRAL MOUNTAINS

CITY           SKY/WX    TMP DP  RH WIND       PRES   REMARKS
RUIDOSO        NOT AVBL

$$
NMZ527>531-201600-
NORTHEAST HIGHLANDS/NORTHEAST PLAINS

CITY           SKY/WX    TMP DP  RH WIND       PRES   REMARKS
LAS VEGAS      FAIR      64  50  60 S9        30.25R
RATON          FAIR      67  51  56 NE3       30.21R
CLAYTON        FAIR      70  56  61 SW14      30.10S

$$
NMZ532>537-201600-
EASTCENTRAL PLAINS

CITY           SKY/WX    TMP DP  RH WIND       PRES   REMARKS
SANTA ROSA     FAIR      70  55  60 S5        30.13R
TUCUMCARI      FAIR      81  59  47 SW14      30.07R
CANNON AFB     CLOUDY    72  69  90 SW7       30.14R
CLOVIS AIRPORT FAIR      75  64  68 SW10      30.13R

$$
NMZ028-029-538-201600-
SOUTHEAST PLAINS

CITY           SKY/WX    TMP DP  RH WIND       PRES   REMARKS
ROSWELL        FAIR      79  63  57 S12       30.09R
ARTESIA        FAIR      77  66  69 SE8       30.10R
CARLSBAD       FAIR      76  69  79 CALM      30.07R
HOBBS          SUNNY     77  61  57 S12G17    30.10S


$$



USA.gov is the U.S. government's official web portal to all federal, state and local government web resources and services.